Flag for India Weather past 2 weeks in Lucknow, Uttar Pradesh, India

Now
95 °F

Haze.


Feels Like: 92 °F
Forecast: 76 / 102 °F
Wind: 13 mph from Northwest

Location: Lucknow / Amausi


UV Index: 7 (High)

Visibility: 3 mi


Pressure: 29.80 "Hg

Humidity: 20%

Dew point: 48 °F

Location of LucknowLocation

Historic Weather in Lucknow

°F

Lucknow temperature yesterday

Maximum temperature yesterday: 90 °F (at 5:00 PM)
Minimum temperature yesterday: 66 °F (at 3:00 AM)
Average temperature yesterday: 78 °F

Past Weeks' High & Low Weather Summary

 TemperatureHumidityPressure
High109 °F (Apr 7, 4:00 PM)100% (Apr 8, 8:30 AM)29.98 "Hg (Apr 8, 8:30 AM)
Low61 °F (Apr 11, 4:00 AM)10% (Apr 10, 2:30 PM)29.62 "Hg (Apr 17, 7:00 PM)
Average85 °F38%29.78 "Hg
* Reported Apr 5 1:30 PM — Apr 20 2:00 PM, Lucknow, Weather by CustomWeather, © 2014

Note: Actual official high and low records may vary slightly from our data, if they occured in-between our weather recording intervals... More about our weather records

Advertising

Historic Weather Conditions — Data for Previous 24 hours

 ConditionsComfort  
Time TempWeatherWind HumidityBarometerVisibility
2:00 PM
Apr 20
95 °FHaze.12 mph25%29.80 "Hg3 mi
1:30 PM95 °FHaze.9 mph25%29.83 "Hg3 mi
1:00 PM95 °FHaze.10 mph26%29.86 "Hg3 mi
12:30 PM93 °FHaze.9 mph34%29.86 "Hg3 mi
12:00 PM93 °FHaze.8 mph34%29.86 "Hg3 mi
11:30 AM91 °FScattered clouds.8 mph34%29.89 "Hg3 mi
11:00 AM91 °FHaze.8 mph34%29.89 "Hg3 mi
10:30 AM90 °FHaze.10 mph38%29.89 "Hg3 mi
10:00 AM88 °FScattered clouds.9 mph43%29.89 "Hg3 mi
9:30 AM86 °FScattered clouds.12 mph46%29.89 "Hg3 mi
8:30 AM79 °FScattered clouds.7 mph54%29.89 "Hg2 mi
8:00 AM75 °FScattered clouds.6 mph65%29.89 "Hg2 mi
7:30 AM73 °FScattered clouds.8 mph69%29.86 "Hg2 mi
7:00 AM81 °FScattered clouds.5 mph54%29.86 "Hg2 mi
6:30 AM68 °FScattered clouds.2 mph78%29.86 "Hg2 mi
6:00 AM64 °FPassing clouds.2 mph88%29.83 "Hg2 mi
5:30 AM66 °FHaze.5 mph83%29.83 "Hg2 mi
4:00 AM66 °FHaze.6 mph83%29.83 "Hg2 mi
3:00 AM66 °FHaze.No wind83%29.80 "Hg2 mi
12:00 AM70 °FPassing clouds.5 mph78%29.86 "Hg2 mi
11:00 PM
Apr 19
72 °FHaze.2 mph73%29.86 "Hg2 mi
10:00 PM73 °FHaze.2 mph69%29.86 "Hg2 mi
9:00 PM75 °FHaze.5 mph65%29.83 "Hg2 mi
8:30 PM77 °FPassing clouds.3 mph61%29.83 "Hg2 mi
8:00 PM79 °FPassing clouds.5 mph54%29.83 "Hg2 mi
7:30 PM82 °FPassing clouds.5 mph48%29.83 "Hg2 mi
7:00 PM84 °FScattered clouds.5 mph45%29.83 "Hg2 mi
6:30 PM86 °FScattered clouds.5 mph43%29.80 "Hg2 mi
6:00 PM88 °FScattered clouds.2 mph43%29.80 "Hg2 mi
5:30 PM90 °FScattered clouds.2 mph41%29.80 "Hg2 mi
5:00 PM90 °FScattered clouds.5 mph41%29.80 "Hg2 mi
4:30 PM88 °FScattered clouds.5 mph43%29.80 "Hg2 mi
4:00 PM88 °FBroken clouds.7 mph43%29.80 "Hg2 mi
3:30 PM84 °FBroken clouds.12 mph48%29.83 "Hg2 mi
3:00 PM84 °FBroken clouds.10 mph48%29.83 "Hg2 mi
Weather by CustomWeather, © 2014

See weather overview